Погода в Коржевке

Россия / Ульяновская область     54°10′51″N   46°22′39″E
темп.,
°C
ветер,
м/с
пор.,
м/с
влажн.,
%
обл.,
%
осадки,
мм/ч
давл.,
гПа
погр.,
м
25 мая, ср
ср2501:00+3зсз249294 0.1 1008263
04:00+1зсз229692 0.1 100963
07:00+3сз35857 0.0 1010298
10:00+7сз456184 0.1 10111498
13:00+9зсз455496 0.4 10121742
16:00+9зсз576099 1.0 10131403
19:00+8з477053 0.4 1013792
22:00+3зюз23885 0.5 101542
26 мая, чт
чт2601:00+2юз22915 0.0 101532
04:00+1юз34935 0.0 101657
07:00+5юз368047 0.0 1015227
10:00+10юз565715 0.0 10141342
13:00+11зюз6860100 0.0 10141564
16:00+12юз5107287 0.2 10131527
19:00+12юз487866 0.4 1011719
22:00+9ю31191100 0.6 1010254
27 мая, пт
пт2701:00+10ю51285100 0.3 1008422
04:00+9ююв61395100 2.7 1005542
07:00+10ю61495100 3.2 1002820
10:00+11ю5119199 3.8 1000690
13:00+11ю5993100 0.8 1000727
16:00+10ююз4894100 0.9 1001637
19:00+10юз259692 0.1 1002354
22:00+9зюз3798100 0.1 1004229
28 мая, сб
сб2801:00+8зюз499838 0.0 1007307
04:00+7юз369950 0.0 1008133
07:00+10юз389570 0.0 1009312
10:00+14юз61072100 0.0 1009822
13:00+18ююз7105832 0.0 10091474
16:00+18юз71269100 0.1 10091328
19:00+13юз3119695 2.7 1011592
22:00+11ююз3797100 2.8 1013181
29 мая, вс
вс2901:00+10ююз249774 0.0 101382
04:00+9ююз2497100 0.0 101468
07:00+12ююз3792100 0.0 1015242
10:00+14ююз4886100 0.7 1016895
13:00+11ююз3896100 4.4 1017546
16:00+11юз3796100 6.6 1017411
19:00+10юз3896100 1.0 1018329
22:00+9ююз3996100 1.2 1019298